Ponca City, OK

1:53 AM CST on November 13, 2019 (GMT -0600)
Ponca City Municipal

Weather History for KPNC - July, 2019

Change the Weather History Date:

Saturday, July 13, 2019

  Actual Average Record
Temperature  
Mean Temperature 79 °F -  
Max Temperature 91 °F 96 °F 113 °F (1954)
Min Temperature 68 °F 71 °F 58 °F (1964)
Cooling Degree Days 14    
Growing Degree Days 29 (Base 50)    
Moisture  
Dew Point 66 °F    
Average Humidity 65    
Maximum Humidity 90    
Minimum Humidity 39    
Precipitation  
Precipitation 0.00 in - - ()
Sea Level Pressure  
Sea Level Pressure 29.95 in    
Wind  
Wind Speed 6 mph (NE)    
Max Wind Speed 14 mph    
Max Gust Speed 23 mph    
Visibility 10 miles    
Events      
Averages and records for this station are not official NWS values.
T = Trace of Precipitation, MM = Missing Value Source: NWS Daily Summary

Daily Weather History Graph

Daily Weather History Graph

Search for Another Location

Airport or City:

Astronomy

Jul. 13, 2019 Rise Set
Actual Time 6:19 AM CDT 8:48 PM CDT
Civil Twilight 5:49 AM CDT 9:18 PM CDT
Nautical Twilight 5:12 AM CDT 9:55 PM CDT
Astronomical Twilight 4:31 AM CDT 10:35 PM CDT
Moon 6:12 PM CDT 3:39 AM CDT
Length of Visible Light 15h 28m
Length of Day
14h 28m
Waxing Gibbous, 90% of the Moon is Illuminated
Jul 13
Waxing Gibbous
Jul 16
Full
Jul 24
Last Quarter
Jul 31
New
Aug 7
First Quarter

Hourly Weather History & Observations

Time (CDT) Temp. Heat Index Dew Point Humidity Pressure Visibility Wind Dir Wind Speed Gust Speed Precip Events Conditions
12:53 AM 70.0 °F - 66.0 °F 87% 29.94 in 10.0 mi North 4.6 mph - N/A   Clear
1:53 AM 70.0 °F - 66.0 °F 87% 29.94 in 10.0 mi North 3.5 mph - N/A   Clear
2:53 AM 69.1 °F - 66.0 °F 90% 29.94 in 10.0 mi North 3.5 mph - N/A   Clear
3:53 AM 69.1 °F - 66.0 °F 90% 29.94 in 10.0 mi North 4.6 mph - N/A   Clear
4:53 AM 68.0 °F - 64.9 °F 90% 29.94 in 10.0 mi NNE 3.5 mph - N/A   Clear
5:53 AM 68.0 °F - 64.9 °F 90% 29.95 in 10.0 mi North 3.5 mph - N/A   Clear
6:53 AM 68.0 °F - 64.9 °F 90% 29.95 in 10.0 mi North 4.6 mph - N/A   Clear
7:53 AM 73.9 °F - 69.1 °F 85% 29.97 in 10.0 mi NE 4.6 mph - N/A   Clear
8:53 AM 80.1 °F 82.9 °F 69.1 °F 69% 29.99 in 10.0 mi NE 6.9 mph - N/A   Clear
9:53 AM 82.9 °F 85.8 °F 68.0 °F 60% 30.01 in 10.0 mi East 8.1 mph - N/A   Clear
10:53 AM 84.9 °F 87.1 °F 66.0 °F 53% 30.00 in 10.0 mi ENE 8.1 mph - N/A   Partly Cloudy
11:53 AM 86.0 °F 87.6 °F 64.9 °F 49% 29.99 in 10.0 mi ENE 10.4 mph - N/A   Clear
12:53 PM 88.0 °F 90.3 °F 66.0 °F 48% 29.98 in 10.0 mi East 11.5 mph - N/A   Scattered Clouds
1:53 PM 89.1 °F 90.0 °F 63.0 °F 42% 29.96 in 10.0 mi ESE 13.8 mph 23.0 mph N/A   Scattered Clouds
2:53 PM 90.0 °F 91.3 °F 64.0 °F 42% 29.96 in 10.0 mi ENE 12.7 mph - N/A   Clear
3:53 PM 90.0 °F 91.3 °F 64.0 °F 42% 29.94 in 10.0 mi East 12.7 mph - N/A   Clear
4:53 PM 90.0 °F 90.6 °F 63.0 °F 40% 29.93 in 10.0 mi East 12.7 mph - N/A   Clear
5:53 PM 90.0 °F 90.3 °F 62.1 °F 39% 29.91 in 10.0 mi ESE 11.5 mph - N/A   Clear
6:53 PM 89.1 °F 90.0 °F 63.0 °F 42% 29.92 in 10.0 mi East 10.4 mph - N/A   Clear
7:53 PM 87.1 °F 88.3 °F 64.0 °F 46% 29.92 in 10.0 mi SE 9.2 mph - N/A   Clear
8:53 PM 84.0 °F 85.8 °F 64.9 °F 53% 29.93 in 10.0 mi NE 3.5 mph - N/A   Clear
9:53 PM 78.1 °F - 66.9 °F 68% 29.94 in 10.0 mi Calm Calm - N/A   Clear
10:53 PM 75.9 °F - 69.1 °F 79% 29.96 in 10.0 mi Calm Calm - N/A   Clear
11:53 PM 75.0 °F - 69.1 °F 82% 29.97 in 10.0 mi NNE 3.5 mph - N/A   Clear